Weather History for Kaiser, MO

Change the Weather History Date:

Wednesday, June 19, 2013

  Actual Average Record
Temperature  
Mean Temperature 70 °F -  
Max Temperature 84 °F 81 °F 91 °F (2006)
Min Temperature 57 °F 61 °F 55 °F (2005)
Cooling Degree Days 6    
Growing Degree Days 20 (Base 50)    
Moisture  
Dew Point 62 °F    
Average Humidity 70    
Maximum Humidity 94    
Minimum Humidity 48    
Precipitation  
Precipitation 0.00 in - - ()
Sea Level Pressure  
Sea Level Pressure 30.05 in    
Wind  
Wind Speed 1 mph (ESE)    
Max Wind Speed 8 mph    
Max Gust Speed -    
Visibility 10 miles    
Events      
Averages and records for this station are not official NWS values.
T = Trace of Precipitation, MM = Missing Value Source: NWS Daily Summary

Daily Weather History Graph

Daily Weather History Graph

Search for Another Location

Airport:

Trip Planner

Search our weather history database for the weather conditions in past years. The results will help you decide how hot, cold, wet, or windy it might be!

Date:

Astronomy

Jun. 19, 2013 Rise Set
Actual Time 5:47 AM CDT 8:36 PM CDT
Civil Twilight 5:15 AM CDT 9:07 PM CDT
Nautical Twilight 4:36 AM CDT 9:47 PM CDT
Astronomical Twilight 3:50 AM CDT 10:32 PM CDT
Moon 4:31 PM CDT (6/19) 2:29 AM CDT (6/19)
Length of Visible Light 15h 52m
Length of Day
14h 48m
Waxing Gibbous, 80% of the Moon is Illuminated
Jun 19
Waxing Gibbous
Jun 23
Full
Jun 29
Last Quarter
Jul 8
New
Jul 15
First Quarter

Hourly Weather History & Observations

Time (CDT) Temp. Heat Index Dew Point Humidity Pressure Visibility Wind Dir Wind Speed Gust Speed Precip Events Conditions
12:15 AM 62.6 °F - 59.0 °F 88% 30.02 in 10.0 mi Calm Calm - N/A   Unknown
12:35 AM 60.8 °F - 59.0 °F 94% 30.01 in 10.0 mi Calm Calm - N/A   Unknown
12:55 AM 60.8 °F - 59.0 °F 94% 30.01 in 10.0 mi Calm Calm - N/A   Unknown
1:15 AM 60.8 °F - 57.2 °F 88% 30.01 in 10.0 mi Calm Calm - N/A   Unknown
1:35 AM 62.6 °F - 59.0 °F 88% 30.03 in 10.0 mi Calm Calm - N/A   Unknown
1:55 AM 60.8 °F - 59.0 °F 94% 30.04 in 10.0 mi Calm Calm - N/A   Unknown
2:15 AM 60.8 °F - 57.2 °F 88% 30.04 in 10.0 mi Calm Calm - N/A   Unknown
2:35 AM 60.8 °F - 57.2 °F 88% 30.03 in 10.0 mi Calm Calm - N/A   Unknown
2:55 AM 59.0 °F - 57.2 °F 94% 30.04 in 10.0 mi Calm Calm - N/A   Unknown
3:15 AM 60.8 °F - 57.2 °F 88% 30.04 in 10.0 mi Calm Calm - N/A   Unknown
3:35 AM 60.8 °F - 57.2 °F 88% 30.04 in 10.0 mi Calm Calm - N/A   Unknown
3:55 AM 59.0 °F - 57.2 °F 94% 30.04 in 10.0 mi Calm Calm - N/A   Unknown
4:15 AM 59.0 °F - 57.2 °F 94% 30.04 in 10.0 mi Calm Calm - N/A   Unknown
4:35 AM 59.0 °F - 57.2 °F 94% 30.05 in 10.0 mi Calm Calm - N/A   Unknown
4:55 AM 60.8 °F - 57.2 °F 88% 30.04 in 10.0 mi Calm Calm - N/A   Unknown
5:15 AM 59.0 °F - 57.2 °F 94% 30.05 in 10.0 mi Calm Calm - N/A   Unknown
5:35 AM 59.0 °F - 55.4 °F 88% 30.05 in 10.0 mi Calm Calm - N/A   Unknown
5:55 AM 57.2 °F - 55.4 °F 94% 30.06 in 8.0 mi Calm Calm - N/A   Unknown
6:15 AM 57.2 °F - 55.4 °F 94% 30.06 in 10.0 mi Calm Calm - N/A   Unknown
6:35 AM 59.0 °F - 55.4 °F 88% 30.06 in 10.0 mi Calm Calm - N/A   Unknown
6:55 AM 60.8 °F - 57.2 °F 88% 30.07 in 10.0 mi Calm Calm - N/A   Unknown
7:15 AM 62.6 °F - 59.0 °F 88% 30.07 in 10.0 mi Calm Calm - N/A   Unknown
7:35 AM 62.6 °F - 60.8 °F 94% 30.08 in 10.0 mi Calm Calm - N/A   Unknown
7:55 AM 64.4 °F - 60.8 °F 88% 30.08 in 10.0 mi South 3.5 mph - N/A   Unknown
8:15 AM 66.2 °F - 62.6 °F 88% 30.08 in 10.0 mi Calm Calm - N/A   Unknown
8:35 AM 69.8 °F - 62.6 °F 78% 30.07 in 10.0 mi Calm Calm - N/A   Unknown
8:55 AM 71.6 °F - 62.6 °F 73% 30.07 in 10.0 mi Calm Calm - N/A   Unknown
9:15 AM 71.6 °F - 62.6 °F 73% 30.08 in 10.0 mi Calm Calm - N/A   Unknown
9:35 AM 73.4 °F - 64.4 °F 73% 30.08 in 10.0 mi Calm Calm - N/A   Unknown
9:55 AM 75.2 °F - 62.6 °F 65% 30.08 in 10.0 mi SSE 4.6 mph - N/A   Unknown
10:15 AM 77.0 °F - 62.6 °F 61% 30.08 in 10.0 mi SSE 4.6 mph - N/A   Unknown
10:35 AM 77.0 °F - 62.6 °F 61% 30.08 in 10.0 mi SSW 4.6 mph - N/A   Unknown
10:55 AM 78.8 °F - 62.6 °F 57% 30.08 in 10.0 mi Calm Calm - N/A   Unknown
11:15 AM 78.8 °F - 64.4 °F 61% 30.08 in 10.0 mi Calm Calm - N/A   Unknown
11:35 AM 80.6 °F 82.3 °F 64.4 °F 58% 30.08 in 10.0 mi Calm Calm - N/A   Unknown
11:55 AM 80.6 °F 81.8 °F 62.6 °F 54% 30.08 in 10.0 mi Calm Calm - N/A   Unknown
12:15 PM 82.4 °F 83.4 °F 62.6 °F 51% 30.07 in 10.0 mi Calm Calm - N/A   Unknown
12:35 PM 82.4 °F 83.9 °F 64.4 °F 54% 30.07 in 10.0 mi Calm Calm - N/A   Unknown
12:55 PM 82.4 °F 83.9 °F 64.4 °F 54% 30.06 in 10.0 mi ESE 3.5 mph - N/A   Unknown
1:15 PM 82.4 °F 83.9 °F 64.4 °F 54% 30.05 in 10.0 mi ENE 8.1 mph - N/A   Unknown
1:35 PM 82.4 °F 83.4 °F 62.6 °F 51% 30.05 in 10.0 mi East 4.6 mph - N/A   Unknown
1:55 PM 82.4 °F 82.9 °F 60.8 °F 48% 30.05 in 10.0 mi Calm Calm - N/A   Unknown
2:15 PM 82.4 °F 83.4 °F 62.6 °F 51% 30.05 in 10.0 mi Calm Calm - N/A   Unknown
2:35 PM 84.2 °F 85.0 °F 62.6 °F 48% 30.04 in 10.0 mi South 3.5 mph - N/A   Unknown
2:55 PM 84.2 °F 85.0 °F 62.6 °F 48% 30.04 in 10.0 mi SSE 6.9 mph - N/A   Unknown
3:15 PM 84.2 °F 85.0 °F 62.6 °F 48% 30.04 in 10.0 mi Calm Calm - N/A   Unknown
3:35 PM 84.2 °F 85.6 °F 64.4 °F 51% 30.04 in 10.0 mi SE 4.6 mph - N/A   Unknown
3:55 PM 84.2 °F 85.0 °F 62.6 °F 48% 30.04 in 10.0 mi Calm Calm - N/A   Unknown
4:15 PM 84.2 °F 85.6 °F 64.4 °F 51% 30.03 in 10.0 mi ESE 5.8 mph - N/A   Unknown
4:35 PM 84.2 °F 85.6 °F 64.4 °F 51% 30.03 in 10.0 mi SE 4.6 mph - N/A   Unknown
4:55 PM 84.2 °F 85.6 °F 64.4 °F 51% 30.03 in 10.0 mi East 5.8 mph - N/A   Unknown
5:15 PM 84.2 °F 85.0 °F 62.6 °F 48% 30.02 in 10.0 mi SE 3.5 mph - N/A   Unknown
5:35 PM 84.2 °F 85.6 °F 64.4 °F 51% 30.02 in 10.0 mi ESE 4.6 mph - N/A   Unknown
5:55 PM 84.2 °F 85.6 °F 64.4 °F 51% 30.02 in 10.0 mi East 4.6 mph - N/A   Unknown
6:15 PM 84.2 °F 85.6 °F 64.4 °F 51% 30.01 in 10.0 mi ESE 4.6 mph - N/A   Unknown
6:35 PM 82.4 °F 83.9 °F 64.4 °F 54% 30.01 in 10.0 mi ESE 5.8 mph - N/A   Unknown
6:55 PM 82.4 °F 83.9 °F 64.4 °F 54% 30.01 in 10.0 mi SE 3.5 mph - N/A   Unknown
7:15 PM 82.4 °F 83.9 °F 64.4 °F 54% 30.01 in 10.0 mi ESE 3.5 mph - N/A   Unknown
7:35 PM 80.6 °F 82.7 °F 66.2 °F 61% 30.02 in 10.0 mi ESE 3.5 mph - N/A   Unknown
7:55 PM 80.6 °F 82.7 °F 66.2 °F 61% 30.02 in 10.0 mi East 3.5 mph - N/A   Unknown
8:15 PM 78.8 °F - 66.2 °F 65% 30.02 in 10.0 mi East 3.5 mph - N/A   Unknown
8:35 PM 78.8 °F - 64.4 °F 61% 30.02 in 10.0 mi East 3.5 mph - N/A   Unknown
8:55 PM 75.2 °F - 64.4 °F 69% 30.02 in 10.0 mi East 4.6 mph - N/A   Unknown
9:15 PM 75.2 °F - 64.4 °F 69% 30.02 in 10.0 mi East 3.5 mph - N/A   Unknown
9:35 PM 75.2 °F - 64.4 °F 69% 30.03 in 10.0 mi East 3.5 mph - N/A   Unknown
9:55 PM 73.4 °F - 64.4 °F 73% 30.03 in 10.0 mi East 3.5 mph - N/A   Unknown
10:15 PM 73.4 °F - 64.4 °F 73% 30.04 in 10.0 mi ESE 3.5 mph - N/A   Unknown
10:35 PM 73.4 °F - 64.4 °F 73% 30.04 in 10.0 mi East 3.5 mph - N/A   Unknown
10:55 PM 73.4 °F - 64.4 °F 73% 30.05 in 10.0 mi Calm Calm - N/A   Unknown
11:15 PM 73.4 °F - 62.6 °F 69% 30.05 in 10.0 mi ESE 3.5 mph - N/A   Unknown
11:35 PM 73.4 °F - 62.6 °F 69% 30.06 in 10.0 mi Calm Calm - N/A   Unknown
11:55 PM 71.6 °F - 62.6 °F 73% 30.06 in 10.0 mi Calm Calm - N/A   Unknown